TimeEDT,TemperatureF,Dew PointF,Humidity,Sea Level PressureIn,VisibilityMPH,Wind Direction,Wind SpeedMPH,Gust SpeedMPH,PrecipitationIn,Events,Conditions,WindDirDegrees,DateUTC
12:15 AM,86.9,68.2,54,29.76,10.0,West,9.2,-,N/A,,Clear,260,2013-06-14 04:15:00
12:35 AM,86.7,68.2,54,29.75,10.0,WSW,6.9,-,N/A,,Clear,240,2013-06-14 04:35:00
12:55 AM,86.5,68.4,54,29.77,10.0,West,6.9,-,N/A,,Clear,270,2013-06-14 04:55:00
1:15 AM,86.9,68.4,54,29.76,10.0,West,9.2,-,N/A,,Scattered Clouds,270,2013-06-14 05:15:00
1:35 AM,86.5,68.7,55,29.77,10.0,WNW,11.5,-,N/A,,Clear,300,2013-06-14 05:35:00
1:55 AM,85.8,69.1,57,29.79,10.0,NW,10.4,17.3,N/A,,Clear,310,2013-06-14 05:55:00
2:15 AM,85.5,68.2,56,29.78,10.0,NNW,5.8,-,N/A,,Clear,340,2013-06-14 06:15:00
2:35 AM,84.0,69.3,61,29.79,10.0,NW,4.6,-,N/A,,Scattered Clouds,310,2013-06-14 06:35:00
2:55 AM,83.1,68.9,62,29.81,10.0,WNW,6.9,-,N/A,,Clear,300,2013-06-14 06:55:00
3:15 AM,81.9,65.5,57,29.81,10.0,NW,11.5,17.3,N/A,,Clear,320,2013-06-14 07:15:00
3:35 AM,80.6,63.9,57,29.81,10.0,NW,11.5,17.3,N/A,,Clear,310,2013-06-14 07:35:00
3:55 AM,79.2,64.4,60,29.82,10.0,WNW,8.1,-,N/A,,Scattered Clouds,300,2013-06-14 07:55:00
4:15 AM,78.6,64.4,62,29.82,10.0,WNW,8.1,-,N/A,,Mostly Cloudy,300,2013-06-14 08:15:00
4:35 AM,78.1,65.1,64,29.82,10.0,NW,6.9,-,N/A,,Overcast,310,2013-06-14 08:35:00
4:55 AM,77.5,65.5,66,29.82,10.0,NNW,6.9,-,N/A,,Overcast,330,2013-06-14 08:55:00
5:15 AM,77.0,65.8,68,29.82,10.0,WNW,3.5,-,N/A,,Mostly Cloudy,300,2013-06-14 09:15:00
5:35 AM,76.1,66.6,72,29.82,10.0,NW,3.5,-,N/A,,Scattered Clouds,310,2013-06-14 09:35:00
5:55 AM,75.4,66.9,75,29.82,10.0,NW,3.5,-,N/A,,Clear,310,2013-06-14 09:55:00
6:15 AM,74.7,67.1,77,29.83,10.0,Calm,Calm,-,N/A,,Clear,0,2013-06-14 10:15:00
6:35 AM,74.5,67.1,78,29.84,10.0,Calm,Calm,-,N/A,,Clear,0,2013-06-14 10:35:00
6:55 AM,73.4,67.8,83,29.85,10.0,Calm,Calm,-,N/A,,Clear,0,2013-06-14 10:55:00
7:15 AM,74.7,68.0,80,29.85,10.0,Calm,Calm,-,N/A,,Scattered Clouds,0,2013-06-14 11:15:00
7:35 AM,75.7,67.6,76,29.86,10.0,WNW,3.5,-,N/A,,Scattered Clouds,300,2013-06-14 11:35:00
7:55 AM,76.1,68.5,77,29.87,10.0,NW,3.5,-,N/A,,Scattered Clouds,320,2013-06-14 11:55:00
8:15 AM,77.5,68.7,74,29.88,10.0,North,5.8,-,N/A,,Scattered Clouds,360,2013-06-14 12:15:00
8:35 AM,78.6,68.4,71,29.88,10.0,NNE,4.6,-,N/A,,Clear,20,2013-06-14 12:35:00
8:55 AM,79.7,68.0,67,29.88,10.0,ENE,6.9,-,N/A,,Clear,60,2013-06-14 12:55:00
9:15 AM,80.6,67.5,64,29.89,10.0,ENE,10.4,-,N/A,,Clear,60,2013-06-14 13:15:00
9:35 AM,81.0,65.7,60,29.89,10.0,ENE,10.4,-,N/A,,Clear,70,2013-06-14 13:35:00
9:55 AM,81.9,60.4,48,29.89,10.0,East,11.5,16.1,N/A,,Clear,80,2013-06-14 13:55:00
10:15 AM,82.4,61.7,49,29.90,10.0,ENE,6.9,-,N/A,,Clear,70,2013-06-14 14:15:00
10:35 AM,82.4,62.2,50,29.90,10.0,NE,9.2,-,N/A,,Clear,50,2013-06-14 14:35:00
10:55 AM,83.3,59.4,44,29.90,10.0,East,9.2,-,N/A,,Clear,80,2013-06-14 14:55:00
11:15 AM,83.5,56.7,40,29.91,10.0,East,6.9,-,N/A,,Clear,80,2013-06-14 15:15:00
11:35 AM,83.7,56.1,39,29.91,10.0,ENE,6.9,-,N/A,,Clear,70,2013-06-14 15:35:00
11:55 AM,84.4,55.8,37,29.91,10.0,East,5.8,-,N/A,,Clear,100,2013-06-14 15:55:00
12:15 PM,85.1,56.5,38,29.90,10.0,NE,6.9,-,N/A,,Clear,40,2013-06-14 16:15:00
12:35 PM,85.5,57.9,39,29.90,10.0,ENE,4.6,-,N/A,,Clear,60,2013-06-14 16:35:00
12:55 PM,85.8,56.7,37,29.90,10.0,NE,4.6,-,N/A,,Clear,50,2013-06-14 16:55:00
1:15 PM,86.2,55.9,36,29.90,10.0,Calm,Calm,-,N/A,,Clear,0,2013-06-14 17:15:00
1:35 PM,86.2,56.5,36,29.90,10.0,Calm,Calm,-,N/A,,Clear,0,2013-06-14 17:35:00
1:55 PM,87.3,56.8,35,29.90,10.0,East,3.5,-,N/A,,Scattered Clouds,80,2013-06-14 17:55:00
2:15 PM,86.9,58.8,39,29.89,10.0,NNE,4.6,-,N/A,,Mostly Cloudy,30,2013-06-14 18:15:00
2:35 PM,86.9,58.1,38,29.89,10.0,NNE,6.9,-,N/A,,Scattered Clouds,30,2013-06-14 18:35:00
2:55 PM,88.0,58.6,37,29.89,10.0,SE,3.5,-,N/A,,Scattered Clouds,130,2013-06-14 18:55:00
3:15 PM,88.0,58.8,37,29.89,10.0,East,3.5,-,N/A,,Mostly Cloudy,90,2013-06-14 19:15:00
3:35 PM,87.4,59.0,38,29.90,10.0,Calm,Calm,-,N/A,,Scattered Clouds,0,2013-06-14 19:35:00
3:55 PM,88.7,58.5,36,29.89,10.0,Calm,Calm,-,N/A,,Scattered Clouds,0,2013-06-14 19:55:00
4:15 PM,88.7,59.9,38,29.89,10.0,ENE,5.8,-,N/A,,Scattered Clouds,70,2013-06-14 20:15:00
4:35 PM,88.0,58.5,37,29.89,10.0,Calm,Calm,-,N/A,,Clear,0,2013-06-14 20:35:00
4:55 PM,88.3,59.7,38,29.89,10.0,ENE,6.9,-,N/A,,Scattered Clouds,70,2013-06-14 20:55:00
5:15 PM,88.9,60.3,38,29.89,10.0,Calm,Calm,-,N/A,,Scattered Clouds,0,2013-06-14 21:15:00
5:35 PM,89.1,59.0,36,29.89,10.0,East,4.6,-,N/A,,Clear,80,2013-06-14 21:35:00
5:55 PM,88.9,59.7,37,29.89,10.0,ENE,5.8,-,N/A,,Scattered Clouds,60,2013-06-14 21:55:00
6:15 PM,86.9,59.2,39,29.89,10.0,ENE,4.6,-,N/A,,Scattered Clouds,60,2013-06-14 22:15:00
6:35 PM,88.2,61.2,40,29.89,10.0,East,3.5,-,N/A,,Clear,80,2013-06-14 22:35:00
6:55 PM,88.2,59.2,37,29.89,10.0,Calm,Calm,-,N/A,,Clear,0,2013-06-14 22:55:00
7:15 PM,87.6,60.8,40,29.91,10.0,ENE,11.5,-,N/A,,Scattered Clouds,70,2013-06-14 23:15:00
7:35 PM,86.0,60.6,42,29.92,10.0,East,6.9,-,N/A,,Scattered Clouds,90,2013-06-14 23:35:00
7:55 PM,84.6,62.1,47,29.92,10.0,East,3.5,-,N/A,,Scattered Clouds,80,2013-06-14 23:55:00
8:15 PM,83.3,63.0,50,29.94,10.0,East,3.5,-,N/A,,Clear,80,2013-06-15 00:15:00
8:35 PM,81.9,63.5,54,29.94,10.0,East,3.5,-,N/A,,Clear,90,2013-06-15 00:35:00
8:55 PM,79.5,65.3,62,29.95,10.0,Calm,Calm,-,N/A,,Clear,0,2013-06-15 00:55:00
9:15 PM,77.9,67.3,70,29.95,10.0,Calm,Calm,-,N/A,,Clear,0,2013-06-15 01:15:00
9:35 PM,76.6,66.4,70,29.96,10.0,East,3.5,-,N/A,,Clear,90,2013-06-15 01:35:00
9:55 PM,76.6,65.1,67,29.98,10.0,Calm,Calm,-,N/A,,Clear,0,2013-06-15 01:55:00
10:15 PM,74.7,65.7,73,29.98,10.0,Calm,Calm,-,N/A,,Clear,0,2013-06-15 02:15:00
10:35 PM,73.2,65.3,76,29.99,10.0,Calm,Calm,-,N/A,,Clear,0,2013-06-15 02:35:00
10:55 PM,72.3,65.7,79,30.00,10.0,Calm,Calm,-,N/A,,Clear,0,2013-06-15 02:55:00
11:15 PM,72.0,65.8,81,30.01,10.0,Calm,Calm,-,N/A,,Clear,0,2013-06-15 03:15:00
11:35 PM,71.8,66.7,84,30.02,10.0,Calm,Calm,-,N/A,,Clear,0,2013-06-15 03:35:00
11:55 PM,71.8,67.1,85,30.02,10.0,Calm,Calm,-,N/A,,Clear,0,2013-06-15 03:55:00